Tracking 31027 objects as of 19-Jul-2025
HD Live streaming from Space Station
objects crossing your sky now

SL-8 R/B

Track SL-8 R/B now!
10-day predictions


NORAD ID: 11112
Int'l Code: 1978-105B
Perigee: 745.8 km
Apogee: 794.8 km
Inclination: 74.0 °
Period: 100.1 minutes
Semi major axis: 7141 km
RCS: 4.9315 m2 (large)
Launch date: November 16, 1978
Source: Commonwealth of Independent States (former USSR) (CIS)
Launch site: PLESETSK MISSILE AND SPACE COMPLEX (PKMTR)

Note: This is a ROCKET BODY
Your satellite tracking list
IRIDIUM 106
Track 1 satellite(s)




NASA's NSSDC Master Catalog

Two Line Element Set (TLE):
1 11112U 78105B   25199.53293269  .00000150  00000-0  57320-4 0  9999
2 11112  74.0305 129.6332 0034282 287.0814  72.6586 14.38581997443855
Source of the keplerian elements: AFSPC